Philadelphia Wings Airport, PA

9:28 AM EDT on April 26, 2017 (GMT -0400)
Philadelphia Wings Airport

Weather History for KLOM - November, 2012

Change the Weather History Date:

Saturday, November 24, 2012

  Actual Average (KPNE) Record (KPNE)
Temperature  
Mean Temperature 42 °F -  
Max Temperature 50 °F 50 °F 72 °F (2014)
Min Temperature 35 °F 34 °F 21 °F (2000)
Degree Days  
Heating Degree Days 22    
Moisture  
Dew Point 23 °F    
Average Humidity 52    
Maximum Humidity 65    
Minimum Humidity 42    
Precipitation  
Precipitation 0.00 in - - ()
Sea Level Pressure  
Sea Level Pressure 29.83 in    
Wind  
Wind Speed 10 mph (WNW)    
Max Wind Speed 16 mph    
Max Gust Speed 25 mph    
Visibility 10 miles    
Events      
Averages and records for this station are not official NWS values.
T = Trace of Precipitation, MM = Missing Value Source: NWS Daily Summary

Daily Weather History Graph

Daily Weather History Graph

Search for Another Location

Airport or City:

Trip Planner

Search our weather history database for the weather conditions in past years. The results will help you decide how hot, cold, wet, or windy it might be!

Date:

Astronomy

Nov. 24, 2012 Rise Set
Actual Time 6:57 AM EST 4:38 PM EST
Civil Twilight 6:27 AM EST 5:08 PM EST
Nautical Twilight 5:54 AM EST 5:41 PM EST
Astronomical Twilight 5:21 AM EST 6:13 PM EST
Moon 2:21 PM EST (11/24) 3:11 AM EST (11/24)
Length of Visible Light 10h 40m
Length of Day
9h 41m
Waxing Gibbous, 87% of the Moon is Illuminated
Nov 24
Waxing Gibbous
Nov 28
Full
Dec 6
Last Quarter
Dec 13
New
Dec 20
First Quarter

Hourly Weather History & Observations

Time (EST) Temp. Windchill Dew Point Humidity Pressure Visibility Wind Dir Wind Speed Gust Speed Precip Events Conditions
12:15 AM 50.0 °F - 32.0 °F 50% 29.72 in 10.0 mi West 6.9 mph - N/A   Scattered Clouds
12:35 AM 50.0 °F - 32.0 °F 50% 29.73 in 10.0 mi West 10.4 mph 18.4 mph N/A   Scattered Clouds
12:55 AM 48.2 °F - 32.0 °F 54% 29.74 in 10.0 mi NW 15.0 mph 23.0 mph N/A   Mostly Cloudy
2:35 AM 41.0 °F 34.7 °F 24.8 °F 53% 29.78 in - WNW 10.4 mph - N/A   Unknown
2:55 AM 41.0 °F 34.3 °F 24.8 °F 53% 29.78 in 10.0 mi West 11.5 mph 19.6 mph N/A   Clear
3:15 AM 39.2 °F 32.5 °F 24.8 °F 56% 29.78 in 10.0 mi West 10.4 mph 23.0 mph N/A   Clear
3:35 AM 39.2 °F 33.6 °F 24.8 °F 56% 29.77 in 10.0 mi WNW 8.1 mph 16.1 mph N/A   Clear
3:55 AM 37.4 °F 28.9 °F 24.8 °F 60% 29.77 in 10.0 mi West 13.8 mph 19.6 mph N/A   Clear
4:15 AM 37.4 °F 28.5 °F 26.6 °F 65% 29.77 in 10.0 mi WNW 15.0 mph 20.7 mph N/A   Clear
4:35 AM 37.4 °F 30.8 °F 24.8 °F 60% 29.79 in 10.0 mi WNW 9.2 mph 18.4 mph N/A   Clear
4:55 AM 37.4 °F 32.8 °F 24.8 °F 60% 29.80 in 10.0 mi WNW 5.8 mph 17.3 mph N/A   Clear
5:15 AM 37.4 °F 31.4 °F 24.8 °F 60% 29.80 in 10.0 mi West 8.1 mph - N/A   Clear
5:35 AM 37.4 °F 31.4 °F 24.8 °F 60% 29.80 in 10.0 mi West 8.1 mph - N/A   Scattered Clouds
5:55 AM 37.4 °F 31.4 °F 24.8 °F 60% 29.81 in 10.0 mi WNW 8.1 mph - N/A   Overcast
6:15 AM 37.4 °F 31.4 °F 24.8 °F 60% 29.82 in 10.0 mi West 8.1 mph - N/A   Overcast
6:35 AM 37.4 °F 30.8 °F 23.0 °F 56% 29.82 in 10.0 mi WNW 9.2 mph 17.3 mph N/A   Scattered Clouds
6:55 AM 37.4 °F 32.1 °F 23.0 °F 56% 29.82 in 10.0 mi West 6.9 mph - N/A   Clear
7:15 AM 37.4 °F 30.8 °F 23.0 °F 56% 29.83 in 10.0 mi WNW 9.2 mph 17.3 mph N/A   Clear
7:35 AM 37.4 °F 30.3 °F 23.0 °F 56% 29.83 in 10.0 mi WNW 10.4 mph 17.3 mph N/A   Clear
7:55 AM 37.4 °F 29.8 °F 23.0 °F 56% 29.83 in 10.0 mi WNW 11.5 mph 17.3 mph N/A   Clear
8:15 AM 39.2 °F 31.6 °F 23.0 °F 52% 29.83 in 10.0 mi West 12.7 mph 18.4 mph N/A   Clear
8:35 AM 39.2 °F 33.6 °F 23.0 °F 52% 29.83 in 10.0 mi WNW 8.1 mph 17.3 mph N/A   Clear
8:55 AM 39.2 °F 32.0 °F 23.0 °F 52% 29.83 in 10.0 mi West 11.5 mph 23.0 mph N/A   Clear
9:15 AM 41.0 °F 34.3 °F 23.0 °F 49% 29.83 in 10.0 mi West 11.5 mph 17.3 mph N/A   Clear
9:35 AM 41.0 °F 33.1 °F 23.0 °F 49% 29.84 in 10.0 mi WNW 15.0 mph 25.3 mph N/A   Scattered Clouds
9:55 AM 41.0 °F 35.2 °F 23.0 °F 49% 29.84 in 10.0 mi West 9.2 mph 19.6 mph N/A   Mostly Cloudy
10:15 AM 42.8 °F 35.8 °F 23.0 °F 46% 29.84 in 10.0 mi NW 13.8 mph 21.9 mph N/A   Mostly Cloudy
10:35 AM 41.0 °F 33.1 °F 21.2 °F 45% 29.84 in 10.0 mi NW 15.0 mph 20.7 mph N/A   Overcast
10:55 AM 42.8 °F 36.2 °F 23.0 °F 46% 29.83 in 10.0 mi WNW 12.7 mph 19.6 mph N/A   Mostly Cloudy
11:15 AM 42.8 °F 35.1 °F 21.2 °F 42% 29.82 in 10.0 mi West 16.1 mph 20.7 mph N/A   Mostly Cloudy
11:35 AM 42.8 °F 35.8 °F 21.2 °F 42% 29.81 in 10.0 mi WNW 13.8 mph 24.2 mph N/A   Overcast
11:55 AM 42.8 °F 35.1 °F 21.2 °F 42% 29.81 in 10.0 mi WNW 16.1 mph 25.3 mph N/A   Overcast
12:15 PM 41.0 °F 33.1 °F 23.0 °F 49% 29.81 in 10.0 mi WNW 15.0 mph 21.9 mph N/A   Overcast
12:35 PM 41.0 °F 34.7 °F 23.0 °F 49% 29.81 in 10.0 mi West 10.4 mph 23.0 mph N/A   Overcast
12:55 PM 42.8 °F 37.0 °F 21.2 °F 42% 29.80 in 10.0 mi WNW 10.4 mph 19.6 mph N/A   Overcast
1:15 PM 42.8 °F 35.1 °F 21.2 °F 42% 29.80 in 10.0 mi WNW 16.1 mph 23.0 mph N/A   Overcast
1:35 PM 41.0 °F 34.7 °F 21.2 °F 45% 29.79 in 10.0 mi West 10.4 mph 18.4 mph N/A   Overcast
1:55 PM 42.8 °F 38.0 °F 23.0 °F 46% 29.79 in 10.0 mi West 8.1 mph 19.6 mph N/A   Overcast
2:15 PM 42.8 °F 36.6 °F 21.2 °F 42% 29.79 in 10.0 mi WNW 11.5 mph 25.3 mph N/A   Overcast
2:35 PM 42.8 °F 35.8 °F 21.2 °F 42% 29.79 in 10.0 mi West 13.8 mph 21.9 mph N/A   Overcast
2:55 PM 42.8 °F 37.0 °F 21.2 °F 42% 29.79 in 10.0 mi West 10.4 mph 17.3 mph N/A   Overcast
3:15 PM 41.0 °F 34.7 °F 21.2 °F 45% 29.80 in 10.0 mi WNW 10.4 mph 18.4 mph N/A   Mostly Cloudy
3:35 PM 41.0 °F 33.9 °F 21.2 °F 45% 29.80 in 10.0 mi WNW 12.7 mph 19.6 mph N/A   Mostly Cloudy
3:55 PM 41.0 °F 34.7 °F 21.2 °F 45% 29.81 in 10.0 mi West 10.4 mph 20.7 mph N/A   Mostly Cloudy
4:15 PM 41.0 °F 33.9 °F 21.2 °F 45% 29.81 in 10.0 mi WNW 12.7 mph 21.9 mph N/A   Overcast
4:35 PM 41.0 °F 35.8 °F 23.0 °F 49% 29.82 in 10.0 mi West 8.1 mph 20.7 mph N/A   Mostly Cloudy
4:55 PM 39.2 °F 32.0 °F 23.0 °F 52% 29.83 in 10.0 mi WNW 11.5 mph 19.6 mph N/A   Scattered Clouds
5:15 PM 41.0 °F 34.7 °F 23.0 °F 49% 29.84 in 10.0 mi West 10.4 mph 17.3 mph N/A   Mostly Cloudy
5:35 PM 39.2 °F 32.0 °F 23.0 °F 52% 29.85 in 10.0 mi West 11.5 mph 19.6 mph N/A   Mostly Cloudy
5:55 PM 41.0 °F 35.2 °F 23.0 °F 49% 29.85 in 10.0 mi West 9.2 mph 19.6 mph N/A   Overcast
6:15 PM 39.2 °F 33.0 °F 23.0 °F 52% 29.86 in 10.0 mi WNW 9.2 mph - N/A   Scattered Clouds
6:35 PM 39.2 °F 34.2 °F 23.0 °F 52% 29.87 in 10.0 mi WNW 6.9 mph 19.6 mph N/A   Mostly Cloudy
6:55 PM 37.4 °F 32.8 °F 24.8 °F 60% 29.87 in 10.0 mi WNW 5.8 mph - N/A   Mostly Cloudy
7:15 PM 37.4 °F 32.8 °F 23.0 °F 56% 29.87 in 10.0 mi WNW 5.8 mph - N/A   Overcast
7:35 PM 37.4 °F 31.4 °F 23.0 °F 56% 29.87 in 10.0 mi WNW 8.1 mph - N/A   Mostly Cloudy
7:55 PM 37.4 °F 30.8 °F 23.0 °F 56% 29.87 in 10.0 mi West 9.2 mph - N/A   Mostly Cloudy
8:15 PM 37.4 °F 32.1 °F 23.0 °F 56% 29.88 in 10.0 mi West 6.9 mph 18.4 mph N/A   Mostly Cloudy
8:35 PM 37.4 °F 30.8 °F 23.0 °F 56% 29.88 in 10.0 mi WNW 9.2 mph - N/A   Mostly Cloudy
8:55 PM 37.4 °F 30.8 °F 23.0 °F 56% 29.88 in 10.0 mi WNW 9.2 mph 16.1 mph N/A   Mostly Cloudy
9:15 PM 37.4 °F 30.8 °F 23.0 °F 56% 29.88 in 10.0 mi WNW 9.2 mph - N/A   Overcast
9:35 PM 37.4 °F 30.3 °F 23.0 °F 56% 29.88 in 10.0 mi WNW 10.4 mph 17.3 mph N/A   Overcast
9:55 PM 37.4 °F 30.8 °F 23.0 °F 56% 29.89 in 10.0 mi West 9.2 mph 16.1 mph N/A   Overcast
10:15 PM 37.4 °F 30.3 °F 23.0 °F 56% 29.90 in 10.0 mi West 10.4 mph 16.1 mph N/A   Overcast
10:35 PM 37.4 °F 30.3 °F 23.0 °F 56% 29.90 in 10.0 mi WNW 10.4 mph 17.3 mph N/A   Overcast
10:55 PM 37.4 °F 30.3 °F 23.0 °F 56% 29.91 in 10.0 mi WNW 10.4 mph 18.4 mph N/A   Overcast
11:15 PM 37.4 °F 30.8 °F 23.0 °F 56% 29.91 in 10.0 mi WNW 9.2 mph - N/A   Mostly Cloudy
11:35 PM 35.6 °F 29.2 °F 23.0 °F 60% 29.91 in 10.0 mi West 8.1 mph - N/A   Mostly Cloudy
11:55 PM 37.4 °F 30.3 °F 23.0 °F 56% 29.90 in 10.0 mi West 10.4 mph - N/A   Overcast